User: anonymous   Login
Location: Newark
(47.5833°N, 8.1500°E)
Time: 14:41:13
(UTC+00:00)
Language:

Altair - Orbit

View from above orbital plane
View from above orbital plane
View from above satellite
View from above satellite

Ground track
Ground track

The orbit data is extracted from the following two-line orbital elements,

1    50U 60009B   20304.61248376 -.00000100 +00000-0 -13107-3 0  9994
2    50 047.2329 061.7808 0113093 008.4746 351.7922 12.20112946686726
Epoch (UTC): 30 October 2020 14:41:58
Eccentricity: 0.0113093
inclination: 47.2329°
perigee height: 1502 km
apogee height: 1682 km
right ascension of ascending node: 61.7808°
argument of perigee: 8.4746°
revolutions per day: 12.20112946
mean anomaly at epoch: 351.7922°
orbit number at epoch: 68672

The dashed part of the orbit path shows where the satellite is in the earth's shadow,  

DLR